Time,TemperatureF,DewpointF,PressureIn,WindDirection,WindDirectionDegrees,WindSpeedMPH,WindSpeedGustMPH,Humidity,HourlyPrecipIn,Conditions,Clouds,dailyrainin,SoftwareType,DateUTC
2013-05-17 00:01:00,59.5,53.0,30.02,ENE,72,0.0,0.0,79,0.00,,,0.00,WeatherCatV1.11B39,2013-05-17 04:01:00,
2013-05-17 00:06:00,59.5,52.6,30.02,ENE,72,0.0,0.0,78,0.00,,,0.00,WeatherCatV1.11B39,2013-05-17 04:06:00,
2013-05-17 00:11:00,59.4,52.9,30.01,ENE,72,0.0,0.0,79,0.00,,,0.00,WeatherCatV1.11B39,2013-05-17 04:11:00,
2013-05-17 00:16:00,59.3,52.8,30.01,ENE,72,0.0,0.0,79,0.00,,,0.00,WeatherCatV1.11B39,2013-05-17 04:16:00,
2013-05-17 00:21:00,59.2,52.7,30.01,ENE,72,0.0,0.0,79,0.00,,,0.00,WeatherCatV1.11B39,2013-05-17 04:21:00,
2013-05-17 00:25:00,59.0,52.8,30.01,ENE,73,0.0,0.0,80,0.00,,,0.00,WeatherCatV1.11B39,2013-05-17 04:25:00,
2013-05-17 00:30:00,58.7,52.5,30.02,ENE,72,0.0,0.0,80,0.00,,,0.00,WeatherCatV1.11B39,2013-05-17 04:30:00,
2013-05-17 00:35:00,58.4,52.6,30.01,ENE,72,0.0,0.0,81,0.00,,,0.00,WeatherCatV1.11B39,2013-05-17 04:35:00,
2013-05-17 00:40:00,58.3,52.8,30.01,ENE,72,0.0,0.0,82,0.00,,,0.00,WeatherCatV1.11B39,2013-05-17 04:40:00,
2013-05-17 00:45:00,58.3,52.8,30.01,ENE,72,0.0,0.0,82,0.00,,,0.00,WeatherCatV1.11B39,2013-05-17 04:45:00,
2013-05-17 00:50:00,58.2,52.7,30.01,ENE,72,0.0,0.0,82,0.00,,,0.00,WeatherCatV1.11B39,2013-05-17 04:50:00,
2013-05-17 00:55:00,58.1,53.0,30.01,ENE,73,0.0,0.0,83,0.00,,,0.00,WeatherCatV1.11B39,2013-05-17 04:55:00,
2013-05-17 01:00:00,58.0,52.9,30.01,ENE,73,0.0,0.0,83,0.00,,,0.00,WeatherCatV1.11B39,2013-05-17 05:00:00,
2013-05-17 01:05:00,58.0,52.5,30.01,ENE,72,0.0,0.0,82,0.00,,,0.00,WeatherCatV1.11B39,2013-05-17 05:05:00,
2013-05-17 01:10:00,57.8,52.7,30.01,ENE,72,0.0,0.0,83,0.00,,,0.00,WeatherCatV1.11B39,2013-05-17 05:10:00,
2013-05-17 01:15:00,57.5,52.7,30.01,ENE,72,0.0,0.0,84,0.00,,,0.00,WeatherCatV1.11B39,2013-05-17 05:15:00,
2013-05-17 01:20:00,57.4,52.9,30.00,ENE,72,0.0,0.0,85,0.00,,,0.00,WeatherCatV1.11B39,2013-05-17 05:20:00,
2013-05-17 01:25:00,57.1,52.3,30.00,ENE,72,0.0,0.0,84,0.00,,,0.00,WeatherCatV1.11B39,2013-05-17 05:25:00,
2013-05-17 01:30:00,56.9,52.8,30.00,ENE,72,0.0,0.0,86,0.00,,,0.00,WeatherCatV1.11B39,2013-05-17 05:30:00,
2013-05-17 01:35:00,56.9,52.8,30.00,ENE,72,0.0,0.0,86,0.00,,,0.00,WeatherCatV1.11B39,2013-05-17 05:35:00,
2013-05-17 01:40:00,56.8,52.7,30.00,ENE,73,0.0,0.0,86,0.00,,,0.00,WeatherCatV1.11B39,2013-05-17 05:40:00,
2013-05-17 01:45:00,56.7,52.6,30.00,ENE,73,0.0,0.0,86,0.00,,,0.00,WeatherCatV1.11B39,2013-05-17 05:45:00,
2013-05-17 01:50:00,56.6,52.8,30.00,ENE,72,0.0,0.0,87,0.00,,,0.00,WeatherCatV1.11B39,2013-05-17 05:50:00,
2013-05-17 01:55:00,56.4,52.6,30.00,ENE,72,0.0,0.0,87,0.00,,,0.00,WeatherCatV1.11B39,2013-05-17 05:55:00,
2013-05-17 02:00:00,56.2,52.7,30.01,ENE,73,0.0,0.0,88,0.00,,,0.00,WeatherCatV1.11B39,2013-05-17 06:00:00,
2013-05-17 02:05:00,56.2,52.7,30.00,ENE,72,0.0,0.0,88,0.00,,,0.00,WeatherCatV1.11B39,2013-05-17 06:05:00,
2013-05-17 02:10:00,56.2,52.7,30.01,ENE,73,0.0,0.0,88,0.00,,,0.00,WeatherCatV1.11B39,2013-05-17 06:10:00,
2013-05-17 02:15:00,56.0,52.5,30.01,ENE,72,0.0,0.0,88,0.00,,,0.00,WeatherCatV1.11B39,2013-05-17 06:15:00,
2013-05-17 02:20:00,55.8,52.6,30.01,ENE,72,0.0,0.0,89,0.00,,,0.00,WeatherCatV1.11B39,2013-05-17 06:20:00,
2013-05-17 02:25:00,55.8,52.6,30.01,ENE,72,0.0,0.0,89,0.00,,,0.00,WeatherCatV1.11B39,2013-05-17 06:25:00,
2013-05-17 02:30:00,55.7,52.8,30.01,ENE,73,0.0,0.0,90,0.00,,,0.00,WeatherCatV1.11B39,2013-05-17 06:30:00,
2013-05-17 02:35:00,55.8,52.9,30.01,ENE,72,0.0,0.0,90,0.00,,,0.00,WeatherCatV1.11B39,2013-05-17 06:35:00,
2013-05-17 02:40:00,55.8,52.9,30.01,ENE,73,0.0,0.0,90,0.00,,,0.00,WeatherCatV1.11B39,2013-05-17 06:40:00,
2013-05-17 02:45:00,55.7,52.8,30.01,ENE,72,0.0,0.0,90,0.00,,,0.00,WeatherCatV1.11B39,2013-05-17 06:45:00,
2013-05-17 02:50:00,55.5,52.6,30.00,ENE,72,0.0,0.0,90,0.00,,,0.00,WeatherCatV1.11B39,2013-05-17 06:50:00,
2013-05-17 02:55:00,55.4,52.5,30.01,ENE,72,0.0,0.0,90,0.00,,,0.00,WeatherCatV1.11B39,2013-05-17 06:55:00,
2013-05-17 03:00:00,55.3,52.7,30.01,ENE,73,0.0,0.0,91,0.00,,,0.00,WeatherCatV1.11B39,2013-05-17 07:00:00,
2013-05-17 03:05:00,55.1,52.5,30.01,ENE,73,0.0,0.0,91,0.00,,,0.00,WeatherCatV1.11B39,2013-05-17 07:05:00,
2013-05-17 03:10:00,55.0,52.4,30.01,ENE,72,0.0,0.0,91,0.00,,,0.00,WeatherCatV1.11B39,2013-05-17 07:10:00,
2013-05-17 03:15:00,55.0,52.4,30.01,ENE,72,0.0,0.0,91,0.00,,,0.00,WeatherCatV1.11B39,2013-05-17 07:15:00,
2013-05-17 03:20:00,54.8,52.2,30.01,ENE,72,0.0,0.0,91,0.00,,,0.00,WeatherCatV1.11B39,2013-05-17 07:20:00,
2013-05-17 03:25:00,54.9,52.6,30.01,ENE,73,0.0,0.0,92,0.00,,,0.00,WeatherCatV1.11B39,2013-05-17 07:25:00,
2013-05-17 03:30:00,54.9,52.6,30.01,ENE,72,0.0,0.0,92,0.00,,,0.00,WeatherCatV1.11B39,2013-05-17 07:30:00,
2013-05-17 03:35:00,54.7,52.4,30.02,ENE,72,0.0,0.0,92,0.00,,,0.00,WeatherCatV1.11B39,2013-05-17 07:35:00,
2013-05-17 03:40:00,54.5,52.2,30.02,ENE,72,0.0,0.0,92,0.00,,,0.00,WeatherCatV1.11B39,2013-05-17 07:40:00,
2013-05-17 03:45:00,54.4,52.4,30.02,ENE,72,0.0,0.0,93,0.00,,,0.00,WeatherCatV1.11B39,2013-05-17 07:45:00,
2013-05-17 03:50:00,54.2,52.2,30.02,ENE,72,0.0,0.0,93,0.00,,,0.00,WeatherCatV1.11B39,2013-05-17 07:50:00,
2013-05-17 03:55:00,54.2,51.9,30.03,ENE,73,0.0,0.0,92,0.00,,,0.00,WeatherCatV1.11B39,2013-05-17 07:55:00,
2013-05-17 04:00:00,54.2,52.2,30.03,ENE,73,0.0,0.0,93,0.00,,,0.00,WeatherCatV1.11B39,2013-05-17 08:00:00,
2013-05-17 04:05:00,54.0,51.7,30.03,ENE,72,0.0,0.0,92,0.00,,,0.00,WeatherCatV1.11B39,2013-05-17 08:05:00,
2013-05-17 04:10:00,53.8,51.8,30.03,ENE,72,0.0,0.0,93,0.00,,,0.00,WeatherCatV1.11B39,2013-05-17 08:10:00,
2013-05-17 04:15:00,53.6,51.6,30.03,ENE,72,0.0,0.0,93,0.00,,,0.00,WeatherCatV1.11B39,2013-05-17 08:15:00,
2013-05-17 04:20:00,53.5,51.5,30.03,ENE,72,0.0,0.0,93,0.00,,,0.00,WeatherCatV1.11B39,2013-05-17 08:20:00,
2013-05-17 04:25:00,53.4,51.4,30.03,ENE,72,0.0,0.0,93,0.00,,,0.00,WeatherCatV1.11B39,2013-05-17 08:25:00,
2013-05-17 04:30:00,53.4,51.4,30.03,ENE,73,0.0,0.0,93,0.00,,,0.00,WeatherCatV1.11B39,2013-05-17 08:30:00,
2013-05-17 04:35:00,53.2,51.5,30.03,ENE,72,0.0,0.0,94,0.00,,,0.00,WeatherCatV1.11B39,2013-05-17 08:35:00,
2013-05-17 04:40:00,53.1,51.1,30.04,ENE,72,0.0,0.0,93,0.00,,,0.00,WeatherCatV1.11B39,2013-05-17 08:40:00,
2013-05-17 04:45:00,52.9,51.2,30.04,ENE,73,0.0,0.0,94,0.00,,,0.00,WeatherCatV1.11B39,2013-05-17 08:45:00,
2013-05-17 04:50:00,53.1,51.7,30.04,ENE,72,0.0,0.0,95,0.00,,,0.00,WeatherCatV1.11B39,2013-05-17 08:50:00,
2013-05-17 04:55:00,53.4,51.7,30.04,ENE,73,0.0,0.0,94,0.00,,,0.00,WeatherCatV1.11B39,2013-05-17 08:55:00,
2013-05-17 05:00:00,53.3,51.6,30.04,ENE,72,0.0,0.0,94,0.00,,,0.00,WeatherCatV1.11B39,2013-05-17 09:00:00,
2013-05-17 05:05:00,53.1,51.4,30.04,ENE,72,0.0,0.0,94,0.00,,,0.00,WeatherCatV1.11B39,2013-05-17 09:05:00,
2013-05-17 05:10:00,53.2,51.8,30.04,ENE,73,0.0,0.0,95,0.00,,,0.00,WeatherCatV1.11B39,2013-05-17 09:10:00,
2013-05-17 05:15:00,53.1,51.4,30.04,ENE,72,0.0,0.0,94,0.00,,,0.00,WeatherCatV1.11B39,2013-05-17 09:15:00,
2013-05-17 05:20:00,53.2,51.8,30.04,ENE,73,0.0,0.0,95,0.00,,,0.00,WeatherCatV1.11B39,2013-05-17 09:20:00,
2013-05-17 05:25:00,53.4,52.3,30.05,ENE,73,0.0,0.0,96,0.00,,,0.00,WeatherCatV1.11B39,2013-05-17 09:25:00,
2013-05-17 05:30:00,53.7,52.3,30.05,ENE,73,0.0,0.0,95,0.00,,,0.00,WeatherCatV1.11B39,2013-05-17 09:30:00,
2013-05-17 05:35:00,53.9,52.5,30.05,ENE,73,0.0,0.0,95,0.00,,,0.00,WeatherCatV1.11B39,2013-05-17 09:35:00,
2013-05-17 05:40:00,53.9,52.2,30.05,ENE,72,0.0,0.0,94,0.00,,,0.00,WeatherCatV1.11B39,2013-05-17 09:40:00,
2013-05-17 05:45:00,53.8,52.1,30.05,ENE,73,0.0,0.0,94,0.00,,,0.00,WeatherCatV1.11B39,2013-05-17 09:45:00,
2013-05-17 05:50:00,53.8,52.1,30.05,ENE,72,0.0,0.0,94,0.00,,,0.00,WeatherCatV1.11B39,2013-05-17 09:50:00,
2013-05-17 05:55:00,53.9,52.2,30.05,ENE,73,0.0,0.0,94,0.00,,,0.00,WeatherCatV1.11B39,2013-05-17 09:55:00,
2013-05-17 06:00:00,53.9,52.2,30.05,ENE,73,0.0,0.0,94,0.00,,,0.00,WeatherCatV1.11B39,2013-05-17 10:00:00,
2013-05-17 06:05:00,53.9,52.2,30.06,ENE,73,0.0,0.0,94,0.00,,,0.00,WeatherCatV1.11B39,2013-05-17 10:05:00,
2013-05-17 06:10:00,53.9,52.2,30.06,ENE,73,0.0,0.0,94,0.00,,,0.00,WeatherCatV1.11B39,2013-05-17 10:10:00,
2013-05-17 06:15:00,54.0,52.3,30.06,ENE,72,0.0,0.0,94,0.00,,,0.00,WeatherCatV1.11B39,2013-05-17 10:15:00,
2013-05-17 06:20:00,54.1,52.7,30.06,ENE,72,0.0,0.0,95,0.00,,,0.00,WeatherCatV1.11B39,2013-05-17 10:20:00,
2013-05-17 06:25:00,54.2,52.5,30.06,ENE,73,0.0,0.0,94,0.00,,,0.00,WeatherCatV1.11B39,2013-05-17 10:25:00,
2013-05-17 06:30:00,54.3,52.6,30.06,ENE,73,0.0,0.0,94,0.00,,,0.00,WeatherCatV1.11B39,2013-05-17 10:30:00,
2013-05-17 06:35:00,54.2,52.5,30.06,ENE,72,0.0,0.0,94,0.00,,,0.00,WeatherCatV1.11B39,2013-05-17 10:35:00,
2013-05-17 06:40:00,54.2,52.5,30.07,ENE,73,0.0,0.0,94,0.00,,,0.00,WeatherCatV1.11B39,2013-05-17 10:40:00,
2013-05-17 06:45:00,54.4,53.0,30.06,ENE,73,0.0,0.0,95,0.00,,,0.00,WeatherCatV1.11B39,2013-05-17 10:45:00,
2013-05-17 06:50:00,54.5,52.8,30.07,ENE,73,0.0,0.0,94,0.00,,,0.00,WeatherCatV1.11B39,2013-05-17 10:50:00,
2013-05-17 06:55:00,54.5,52.8,30.07,ENE,72,0.0,0.0,94,0.00,,,0.00,WeatherCatV1.11B39,2013-05-17 10:55:00,
2013-05-17 07:00:00,54.6,52.9,30.07,ENE,72,0.0,0.0,94,0.00,,,0.00,WeatherCatV1.11B39,2013-05-17 11:00:00,
2013-05-17 07:05:00,54.8,53.1,30.07,ENE,73,0.0,0.0,94,0.00,,,0.00,WeatherCatV1.11B39,2013-05-17 11:05:00,
2013-05-17 07:10:00,54.9,53.2,30.07,ENE,73,0.0,0.0,94,0.00,,,0.00,WeatherCatV1.11B39,2013-05-17 11:10:00,
2013-05-17 07:15:00,55.0,53.3,30.07,ENE,73,0.0,0.0,94,0.00,,,0.00,WeatherCatV1.11B39,2013-05-17 11:15:00,
2013-05-17 07:20:00,55.2,53.5,30.07,ENE,72,0.0,0.0,94,0.00,,,0.00,WeatherCatV1.11B39,2013-05-17 11:20:00,
2013-05-17 07:25:00,55.4,53.4,30.07,ENE,72,0.0,0.0,93,0.00,,,0.00,WeatherCatV1.11B39,2013-05-17 11:25:00,
2013-05-17 07:30:00,55.5,53.5,30.07,ENE,72,0.0,0.0,93,0.00,,,0.00,WeatherCatV1.11B39,2013-05-17 11:30:00,
2013-05-17 07:35:00,55.5,53.5,30.07,ENE,72,0.0,0.0,93,0.00,,,0.00,WeatherCatV1.11B39,2013-05-17 11:35:00,
2013-05-17 07:40:00,55.6,53.6,30.08,ENE,72,0.0,0.0,93,0.00,,,0.00,WeatherCatV1.11B39,2013-05-17 11:40:00,
2013-05-17 07:45:00,55.7,53.7,30.08,ENE,72,0.0,0.0,93,0.00,,,0.00,WeatherCatV1.11B39,2013-05-17 11:45:00,
2013-05-17 07:50:00,55.8,53.8,30.08,ENE,77,0.0,0.0,93,0.00,,,0.00,WeatherCatV1.11B39,2013-05-17 11:50:00,
2013-05-17 07:55:00,55.9,53.6,30.08,ENE,77,0.0,0.0,92,0.00,,,0.00,WeatherCatV1.11B39,2013-05-17 11:55:00,
2013-05-17 08:00:00,55.8,53.5,30.08,ENE,58,0.0,0.0,92,0.00,,,0.00,WeatherCatV1.11B39,2013-05-17 12:00:00,
2013-05-17 08:05:00,56.0,53.7,30.08,ENE,58,0.0,0.0,92,0.00,,,0.00,WeatherCatV1.11B39,2013-05-17 12:05:00,
2013-05-17 08:10:00,56.1,53.8,30.08,ENE,58,0.0,0.0,92,0.00,,,0.00,WeatherCatV1.11B39,2013-05-17 12:10:00,
2013-05-17 08:15:00,56.4,54.4,30.08,ENE,58,0.0,0.0,93,0.00,,,0.00,WeatherCatV1.11B39,2013-05-17 12:15:00,
2013-05-17 08:20:00,56.6,54.3,30.09,ENE,58,0.0,0.0,92,0.00,,,0.00,WeatherCatV1.11B39,2013-05-17 12:20:00,
2013-05-17 08:25:00,56.8,54.5,30.09,ENE,68,0.0,0.0,92,0.00,,,0.00,WeatherCatV1.11B39,2013-05-17 12:25:00,
2013-05-17 08:30:00,57.1,54.5,30.09,ENE,68,0.0,0.0,91,0.00,,,0.00,WeatherCatV1.11B39,2013-05-17 12:30:00,
2013-05-17 08:35:00,57.4,54.8,30.09,ENE,68,0.0,0.0,91,0.00,,,0.00,WeatherCatV1.11B39,2013-05-17 12:35:00,
2013-05-17 08:40:00,57.6,54.7,30.09,ENE,68,0.0,0.0,90,0.00,,,0.00,WeatherCatV1.11B39,2013-05-17 12:40:00,
2013-05-17 08:45:00,57.8,54.9,30.09,ENE,68,0.0,0.0,90,0.00,,,0.00,WeatherCatV1.11B39,2013-05-17 12:45:00,
2013-05-17 08:50:00,58.1,54.9,30.09,ENE,68,0.0,0.0,89,0.00,,,0.00,WeatherCatV1.11B39,2013-05-17 12:50:00,
2013-05-17 08:55:00,58.3,55.1,30.09,ENE,68,0.0,0.0,89,0.00,,,0.00,WeatherCatV1.11B39,2013-05-17 12:55:00,
2013-05-17 09:00:00,58.6,55.1,30.10,ENE,68,0.0,0.0,88,0.00,,,0.00,WeatherCatV1.11B39,2013-05-17 13:00:00,
2013-05-17 09:05:00,58.7,55.2,30.09,ENE,68,0.0,0.0,88,0.00,,,0.00,WeatherCatV1.11B39,2013-05-17 13:05:00,
2013-05-17 09:10:00,59.1,55.5,30.09,ENE,68,0.0,0.0,88,0.00,,,0.00,WeatherCatV1.11B39,2013-05-17 13:10:00,
2013-05-17 09:15:00,59.3,55.4,30.10,ENE,68,0.0,0.0,87,0.00,,,0.00,WeatherCatV1.11B39,2013-05-17 13:15:00,
2013-05-17 09:20:00,59.7,55.8,30.09,ENE,68,0.0,0.0,87,0.00,,,0.00,WeatherCatV1.11B39,2013-05-17 13:20:00,
2013-05-17 09:25:00,60.1,55.6,30.09,East,79,0.0,0.0,85,0.00,,,0.00,WeatherCatV1.11B39,2013-05-17 13:25:00,
2013-05-17 09:30:00,60.7,55.5,30.10,East,79,0.0,0.0,83,0.00,,,0.00,WeatherCatV1.11B39,2013-05-17 13:30:00,
2013-05-17 09:35:00,61.1,55.6,30.10,East,79,0.0,0.0,82,0.00,,,0.00,WeatherCatV1.11B39,2013-05-17 13:35:00,
2013-05-17 09:40:00,61.7,55.8,30.09,ENE,78,0.0,0.0,81,0.00,,,0.00,WeatherCatV1.11B39,2013-05-17 13:40:00,
2013-05-17 09:45:00,62.2,55.9,30.09,ENE,78,0.0,0.0,80,0.00,,,0.00,WeatherCatV1.11B39,2013-05-17 13:45:00,
2013-05-17 09:50:00,62.5,55.9,30.09,ENE,78,0.0,0.0,79,0.00,,,0.00,WeatherCatV1.11B39,2013-05-17 13:50:00,
2013-05-17 09:55:00,62.9,55.9,30.09,ENE,78,0.0,0.0,78,0.00,,,0.00,WeatherCatV1.11B39,2013-05-17 13:55:00,
2013-05-17 10:00:00,63.3,56.3,30.09,ENE,78,0.0,0.0,78,0.00,,,0.00,WeatherCatV1.11B39,2013-05-17 14:00:00,
2013-05-17 10:05:00,63.7,56.7,30.09,ENE,78,0.0,0.0,78,0.00,,,0.00,WeatherCatV1.11B39,2013-05-17 14:05:00,
2013-05-17 10:10:00,64.2,56.8,30.09,SE,134,0.0,1.0,77,0.00,,,0.00,WeatherCatV1.11B39,2013-05-17 14:10:00,
2013-05-17 10:15:00,64.9,57.1,30.09,East,85,0.0,1.0,76,0.00,,,0.00,WeatherCatV1.11B39,2013-05-17 14:15:00,
2013-05-17 10:20:00,65.6,58.2,30.09,East,86,0.0,0.0,77,0.00,,,0.00,WeatherCatV1.11B39,2013-05-17 14:20:00,
2013-05-17 10:25:00,66.0,57.5,30.09,East,86,0.0,0.0,74,0.00,,,0.00,WeatherCatV1.11B39,2013-05-17 14:25:00,
2013-05-17 10:30:00,66.3,57.8,30.09,ENE,75,0.0,0.0,74,0.00,,,0.00,WeatherCatV1.11B39,2013-05-17 14:30:00,
2013-05-17 10:35:00,66.6,58.0,30.09,NE,48,0.0,4.0,74,0.00,,,0.00,WeatherCatV1.11B39,2013-05-17 14:35:00,
2013-05-17 10:40:00,66.8,57.9,30.09,ENE,65,0.0,1.0,73,0.00,,,0.00,WeatherCatV1.11B39,2013-05-17 14:40:00,
2013-05-17 10:45:00,67.2,58.6,30.09,ENE,65,0.0,1.0,74,0.00,,,0.00,WeatherCatV1.11B39,2013-05-17 14:45:00,
2013-05-17 10:46:00,67.4,58.4,30.09,NE,51,1.0,1.0,73,0.00,,,0.00,WeatherCatV1.11B39,2013-05-17 14:46:00,
2013-05-17 10:51:00,67.8,58.0,30.09,ENE,65,1.0,2.0,71,0.00,,,0.00,WeatherCatV1.11B39,2013-05-17 14:51:00,
2013-05-17 10:56:00,68.3,58.1,30.09,ENE,65,0.0,1.0,70,0.00,,,0.00,WeatherCatV1.11B39,2013-05-17 14:56:00,
2013-05-17 11:01:00,69.0,58.4,30.09,ENE,72,1.0,2.0,69,0.00,,,0.00,WeatherCatV1.11B39,2013-05-17 15:01:00,
2013-05-17 11:06:00,69.6,58.1,30.08,NE,39,0.0,3.0,67,0.00,,,0.00,WeatherCatV1.11B39,2013-05-17 15:06:00,
2013-05-17 11:11:00,70.3,58.4,30.08,ENE,59,1.0,2.0,66,0.00,,,0.00,WeatherCatV1.11B39,2013-05-17 15:11:00,
2013-05-17 11:16:00,70.8,58.0,30.08,SE,129,0.0,0.0,64,0.00,,,0.00,WeatherCatV1.11B39,2013-05-17 15:16:00,
2013-05-17 11:21:00,70.9,57.2,30.08,SE,129,0.0,1.0,62,0.00,,,0.00,WeatherCatV1.11B39,2013-05-17 15:21:00,
2013-05-17 11:26:00,71.3,57.1,30.08,SSE,152,0.0,1.0,61,0.00,,,0.00,WeatherCatV1.11B39,2013-05-17 15:26:00,
2013-05-17 11:31:00,71.6,57.0,30.08,North,10,2.0,2.0,60,0.00,,,0.00,WeatherCatV1.11B39,2013-05-17 15:31:00,
2013-05-17 11:36:00,72.2,58.0,30.08,ENE,71,0.0,0.0,61,0.00,,,0.00,WeatherCatV1.11B39,2013-05-17 15:36:00,
2013-05-17 11:41:00,72.9,58.6,30.08,SE,131,0.0,0.0,61,0.00,,,0.00,WeatherCatV1.11B39,2013-05-17 15:41:00,
2013-05-17 11:46:00,73.1,57.4,30.08,ENE,58,0.0,2.0,58,0.00,,,0.00,WeatherCatV1.11B39,2013-05-17 15:46:00,
2013-05-17 11:51:00,73.5,57.3,30.08,SE,134,1.0,2.0,57,0.00,,,0.00,WeatherCatV1.11B39,2013-05-17 15:51:00,
2013-05-17 11:56:00,73.1,56.9,30.08,SE,132,0.0,0.0,57,0.00,,,0.00,WeatherCatV1.11B39,2013-05-17 15:56:00,
2013-05-17 12:01:00,73.3,57.1,30.07,SE,125,1.0,1.0,57,0.00,,,0.00,WeatherCatV1.11B39,2013-05-17 16:01:00,
2013-05-17 12:06:00,73.7,57.5,30.07,NE,55,1.0,3.0,57,0.00,,,0.00,WeatherCatV1.11B39,2013-05-17 16:06:00,
2013-05-17 12:11:00,74.2,58.0,30.07,East,101,0.0,0.0,57,0.00,,,0.00,WeatherCatV1.11B39,2013-05-17 16:11:00,
2013-05-17 12:16:00,74.6,58.3,30.07,ENE,65,0.0,2.0,57,0.00,,,0.00,WeatherCatV1.11B39,2013-05-17 16:16:00,
2013-05-17 12:21:00,75.3,58.0,30.07,ENE,65,0.0,4.0,55,0.00,,,0.00,WeatherCatV1.11B39,2013-05-17 16:21:00,
2013-05-17 12:26:00,75.9,58.6,30.07,East,93,0.0,2.0,55,0.00,,,0.00,WeatherCatV1.11B39,2013-05-17 16:26:00,
2013-05-17 12:31:00,76.6,58.2,30.06,NE,38,2.0,2.0,53,0.00,,,0.00,WeatherCatV1.11B39,2013-05-17 16:31:00,
2013-05-17 12:36:00,77.1,58.1,30.07,East,98,0.0,7.0,52,0.00,,,0.00,WeatherCatV1.11B39,2013-05-17 16:36:00,
2013-05-17 12:41:00,77.5,57.4,30.06,SE,143,2.0,4.0,50,0.00,,,0.00,WeatherCatV1.11B39,2013-05-17 16:41:00,
2013-05-17 12:46:00,78.2,56.9,30.06,ENE,77,1.0,3.0,48,0.00,,,0.00,WeatherCatV1.11B39,2013-05-17 16:46:00,
2013-05-17 12:51:00,78.4,56.5,30.06,NE,40,6.0,6.0,47,0.00,,,0.00,WeatherCatV1.11B39,2013-05-17 16:51:00,
2013-05-17 12:56:00,78.5,56.6,30.06,ENE,65,0.0,3.0,47,0.00,,,0.00,WeatherCatV1.11B39,2013-05-17 16:56:00,
2013-05-17 13:01:00,78.5,57.7,30.05,SSW,193,0.0,3.0,49,0.00,,,0.00,WeatherCatV1.11B39,2013-05-17 17:01:00,
2013-05-17 13:06:00,78.2,59.1,30.05,East,80,0.0,2.0,52,0.00,,,0.00,WeatherCatV1.11B39,2013-05-17 17:06:00,
2013-05-17 13:11:00,78.7,57.3,30.05,ENE,70,0.0,0.0,48,0.00,,,0.00,WeatherCatV1.11B39,2013-05-17 17:11:00,
2013-05-17 13:16:00,79.1,57.1,30.05,NE,51,3.0,4.0,47,0.00,,,0.00,WeatherCatV1.11B39,2013-05-17 17:16:00,
2013-05-17 13:21:00,78.6,57.8,30.05,SSE,153,0.0,5.0,49,0.00,,,0.00,WeatherCatV1.11B39,2013-05-17 17:21:00,
2013-05-17 13:27:00,78.8,56.2,30.05,ESE,116,0.0,1.0,46,0.00,,,0.00,WeatherCatV1.11B39,2013-05-17 17:27:00,
2013-05-17 13:32:00,79.4,58.0,30.04,ESE,117,0.0,0.0,48,0.00,,,0.00,WeatherCatV1.11B39,2013-05-17 17:32:00,
2013-05-17 13:37:00,80.0,58.5,30.04,ESE,119,0.0,0.0,48,0.00,,,0.00,WeatherCatV1.11B39,2013-05-17 17:37:00,
2013-05-17 13:42:00,80.3,57.0,30.04,East,101,0.0,0.0,45,0.00,,,0.00,WeatherCatV1.11B39,2013-05-17 17:42:00,
2013-05-17 13:47:00,80.9,58.2,30.04,ESE,120,1.0,1.0,46,0.00,,,0.00,WeatherCatV1.11B39,2013-05-17 17:47:00,
2013-05-17 13:52:00,80.6,55.4,30.04,SE,132,0.0,4.0,42,0.00,,,0.00,WeatherCatV1.11B39,2013-05-17 17:52:00,
2013-05-17 13:57:00,81.4,58.0,30.04,ESE,103,0.0,1.0,45,0.00,,,0.00,WeatherCatV1.11B39,2013-05-17 17:57:00,
2013-05-17 14:02:00,81.7,54.3,30.04,ESE,115,1.0,8.0,39,0.00,,,0.00,WeatherCatV1.11B39,2013-05-17 18:02:00,
2013-05-17 14:07:00,82.2,56.1,30.03,ENE,72,0.0,1.0,41,0.00,,,0.00,WeatherCatV1.11B39,2013-05-17 18:07:00,
2013-05-17 14:12:00,82.6,57.2,30.03,SE,127,0.0,0.0,42,0.00,,,0.00,WeatherCatV1.11B39,2013-05-17 18:12:00,
2013-05-17 14:17:00,82.8,55.3,30.03,ESE,116,4.0,4.0,39,0.00,,,0.00,WeatherCatV1.11B39,2013-05-17 18:17:00,
2013-05-17 14:22:00,82.0,56.6,30.03,ENE,65,0.0,3.0,42,0.00,,,0.00,WeatherCatV1.11B39,2013-05-17 18:22:00,
2013-05-17 14:27:00,81.5,56.2,30.03,East,85,0.0,1.0,42,0.00,,,0.00,WeatherCatV1.11B39,2013-05-17 18:27:00,
2013-05-17 14:32:00,80.8,58.1,30.02,ESE,120,0.0,0.0,46,0.00,,,0.00,WeatherCatV1.11B39,2013-05-17 18:32:00,
2013-05-17 14:37:00,80.2,56.9,30.02,South,191,2.0,3.0,45,0.00,,,0.00,WeatherCatV1.11B39,2013-05-17 18:37:00,
2013-05-17 14:42:00,79.4,58.0,30.02,NNE,25,1.0,1.0,48,0.00,,,0.00,WeatherCatV1.11B39,2013-05-17 18:42:00,
2013-05-17 14:47:00,79.0,57.6,30.02,SSE,164,1.0,3.0,48,0.00,,,0.00,WeatherCatV1.11B39,2013-05-17 18:47:00,
2013-05-17 14:52:00,79.6,58.7,30.02,South,169,0.0,0.0,49,0.00,,,0.00,WeatherCatV1.11B39,2013-05-17 18:52:00,
2013-05-17 14:57:00,80.5,57.8,30.02,ESE,113,2.0,4.0,46,0.00,,,0.00,WeatherCatV1.11B39,2013-05-17 18:57:00,
2013-05-17 15:02:00,80.5,58.4,30.01,ESE,117,2.0,4.0,47,0.00,,,0.00,WeatherCatV1.11B39,2013-05-17 19:02:00,
2013-05-17 15:07:00,80.5,57.2,30.02,SE,139,1.0,6.0,45,0.00,,,0.00,WeatherCatV1.11B39,2013-05-17 19:07:00,
2013-05-17 15:12:00,80.6,57.3,30.02,ENE,60,4.0,5.0,45,0.00,,,0.00,WeatherCatV1.11B39,2013-05-17 19:12:00,
2013-05-17 15:17:00,80.7,59.2,30.01,ESE,121,0.0,0.0,48,0.00,,,0.00,WeatherCatV1.11B39,2013-05-17 19:17:00,
2013-05-17 15:22:00,79.9,56.6,30.01,East,80,1.0,2.0,45,0.00,,,0.00,WeatherCatV1.11B39,2013-05-17 19:22:00,
2013-05-17 15:27:00,79.5,57.5,30.01,South,174,0.0,2.0,47,0.00,,,0.00,WeatherCatV1.11B39,2013-05-17 19:27:00,
2013-05-17 15:32:00,79.6,57.6,30.01,ESE,110,0.0,1.0,47,0.00,,,0.00,WeatherCatV1.11B39,2013-05-17 19:32:00,
2013-05-17 15:37:00,80.0,57.3,30.01,SE,130,0.0,3.0,46,0.00,,,0.00,WeatherCatV1.11B39,2013-05-17 19:37:00,
2013-05-17 15:42:00,80.0,57.9,30.01,SSE,153,0.0,5.0,47,0.00,,,0.00,WeatherCatV1.11B39,2013-05-17 19:42:00,
2013-05-17 15:47:00,79.4,58.5,30.01,ESE,122,1.0,2.0,49,0.00,,,0.00,WeatherCatV1.11B39,2013-05-17 19:47:00,
2013-05-17 15:52:00,79.1,58.3,30.01,SE,136,0.0,2.0,49,0.00,,,0.00,WeatherCatV1.11B39,2013-05-17 19:52:00,
2013-05-17 15:57:00,78.7,58.5,30.01,SE,131,0.0,1.0,50,0.00,,,0.00,WeatherCatV1.11B39,2013-05-17 19:57:00,
2013-05-17 16:02:00,78.3,57.5,30.01,East,96,0.0,2.0,49,0.00,,,0.00,WeatherCatV1.11B39,2013-05-17 20:02:00,
2013-05-17 16:07:00,78.0,57.8,30.01,SSE,157,0.0,1.0,50,0.00,,,0.00,WeatherCatV1.11B39,2013-05-17 20:07:00,
2013-05-17 16:12:00,77.9,58.3,30.01,SE,136,1.0,3.0,51,0.00,,,0.00,WeatherCatV1.11B39,2013-05-17 20:12:00,
2013-05-17 16:17:00,78.1,57.4,30.00,ENE,65,0.0,4.0,49,0.00,,,0.00,WeatherCatV1.11B39,2013-05-17 20:17:00,
2013-05-17 16:22:00,78.8,59.1,30.00,ESE,115,0.0,1.0,51,0.00,,,0.00,WeatherCatV1.11B39,2013-05-17 20:22:00,
2013-05-17 16:27:00,78.3,57.5,30.00,SSW,200,1.0,4.0,49,0.00,,,0.00,WeatherCatV1.11B39,2013-05-17 20:27:00,
2013-05-17 16:32:00,77.9,57.7,30.00,SW,226,0.0,4.0,50,0.00,,,0.00,WeatherCatV1.11B39,2013-05-17 20:32:00,
2013-05-17 16:37:00,77.9,57.7,30.00,SE,134,0.0,1.0,50,0.00,,,0.00,WeatherCatV1.11B39,2013-05-17 20:37:00,
2013-05-17 16:42:00,78.1,57.4,30.00,ESE,107,0.0,1.0,49,0.00,,,0.00,WeatherCatV1.11B39,2013-05-17 20:42:00,
2013-05-17 16:47:00,78.2,54.5,30.00,SSE,160,0.0,6.0,44,0.00,,,0.00,WeatherCatV1.11B39,2013-05-17 20:47:00,
2013-05-17 16:52:00,77.8,55.3,30.00,SSE,154,0.0,0.0,46,0.00,,,0.00,WeatherCatV1.11B39,2013-05-17 20:52:00,
2013-05-17 16:57:00,78.0,54.3,29.99,SE,143,0.0,0.0,44,0.00,,,0.00,WeatherCatV1.11B39,2013-05-17 20:57:00,
2013-05-17 17:02:00,77.8,55.3,29.99,ESE,118,0.0,3.0,46,0.00,,,0.00,WeatherCatV1.11B39,2013-05-17 21:02:00,
2013-05-17 17:07:00,77.6,52.7,29.99,NE,53,2.0,4.0,42,0.00,,,0.00,WeatherCatV1.11B39,2013-05-17 21:07:00,
2013-05-17 17:12:00,77.6,53.3,29.99,SE,134,1.0,4.0,43,0.00,,,0.00,WeatherCatV1.11B39,2013-05-17 21:12:00,
2013-05-17 17:17:00,77.6,53.9,29.99,East,84,1.0,1.0,44,0.00,,,0.00,WeatherCatV1.11B39,2013-05-17 21:17:00,
2013-05-17 17:22:00,77.3,54.9,29.99,SE,146,0.0,2.0,46,0.00,,,0.00,WeatherCatV1.11B39,2013-05-17 21:22:00,
2013-05-17 17:27:00,76.8,54.4,29.99,SE,146,0.0,0.0,46,0.00,,,0.00,WeatherCatV1.11B39,2013-05-17 21:27:00,
2013-05-17 17:32:00,76.6,54.8,29.99,SE,143,0.0,1.0,47,0.00,,,0.00,WeatherCatV1.11B39,2013-05-17 21:32:00,
2013-05-17 17:37:00,76.5,54.2,29.99,SSE,148,0.0,2.0,46,0.00,,,0.00,WeatherCatV1.11B39,2013-05-17 21:37:00,
2013-05-17 17:42:00,76.8,53.2,29.99,SE,131,0.0,1.0,44,0.00,,,0.00,WeatherCatV1.11B39,2013-05-17 21:42:00,
2013-05-17 17:47:00,77.1,54.1,29.99,ESE,113,0.0,1.0,45,0.00,,,0.00,WeatherCatV1.11B39,2013-05-17 21:47:00,
2013-05-17 17:52:00,77.1,54.1,29.99,SSE,150,0.0,1.0,45,0.00,,,0.00,WeatherCatV1.11B39,2013-05-17 21:52:00,
2013-05-17 17:57:00,76.8,55.0,29.99,SW,224,2.0,3.0,47,0.00,,,0.00,WeatherCatV1.11B39,2013-05-17 21:57:00,
2013-05-17 18:02:00,76.4,54.1,29.99,SE,139,0.0,0.0,46,0.00,,,0.00,WeatherCatV1.11B39,2013-05-17 22:02:00,
2013-05-17 18:07:00,76.1,53.8,29.99,ESE,120,0.0,2.0,46,0.00,,,0.00,WeatherCatV1.11B39,2013-05-17 22:07:00,
2013-05-17 18:12:00,75.7,51.6,29.99,SE,128,1.0,3.0,43,0.00,,,0.00,WeatherCatV1.11B39,2013-05-17 22:12:00,
2013-05-17 18:17:00,75.7,51.6,29.99,South,186,0.0,4.0,43,0.00,,,0.00,WeatherCatV1.11B39,2013-05-17 22:17:00,
2013-05-17 18:22:00,75.5,52.0,29.99,East,89,0.0,2.0,44,0.00,,,0.00,WeatherCatV1.11B39,2013-05-17 22:22:00,
2013-05-17 18:27:00,75.3,53.7,29.99,SE,145,0.0,0.0,47,0.00,,,0.00,WeatherCatV1.11B39,2013-05-17 22:27:00,
2013-05-17 18:32:00,75.2,54.1,29.99,SSE,162,0.0,3.0,48,0.00,,,0.00,WeatherCatV1.11B39,2013-05-17 22:32:00,
2013-05-17 18:37:00,75.4,54.9,29.98,SE,138,0.0,0.0,49,0.00,,,0.00,WeatherCatV1.11B39,2013-05-17 22:37:00,
2013-05-17 18:42:00,75.5,55.5,29.99,SE,139,2.0,2.0,50,0.00,,,0.00,WeatherCatV1.11B39,2013-05-17 22:42:00,
2013-05-17 18:47:00,75.3,55.9,29.99,SSE,158,0.0,0.0,51,0.00,,,0.00,WeatherCatV1.11B39,2013-05-17 22:47:00,
2013-05-17 18:52:00,75.3,55.4,29.99,SSE,157,0.0,1.0,50,0.00,,,0.00,WeatherCatV1.11B39,2013-05-17 22:52:00,
2013-05-17 18:57:00,75.4,56.0,29.99,ESE,116,0.0,1.0,51,0.00,,,0.00,WeatherCatV1.11B39,2013-05-17 22:57:00,
2013-05-17 19:02:00,75.1,55.2,29.99,South,172,0.0,2.0,50,0.00,,,0.00,WeatherCatV1.11B39,2013-05-17 23:02:00,
2013-05-17 19:07:00,74.9,55.5,30.00,SSE,150,1.0,2.0,51,0.00,,,0.00,WeatherCatV1.11B39,2013-05-17 23:07:00,
2013-05-17 19:12:00,74.6,55.8,30.00,ESE,105,6.0,6.0,52,0.00,,,0.00,WeatherCatV1.11B39,2013-05-17 23:12:00,
2013-05-17 19:17:00,74.7,55.9,30.00,South,176,2.0,4.0,52,0.00,,,0.00,WeatherCatV1.11B39,2013-05-17 23:17:00,
2013-05-17 19:22:00,74.4,56.7,30.00,SE,131,1.0,2.0,54,0.00,,,0.00,WeatherCatV1.11B39,2013-05-17 23:22:00,
2013-05-17 19:27:00,74.0,56.8,30.00,SSE,152,1.0,1.0,55,0.00,,,0.00,WeatherCatV1.11B39,2013-05-17 23:27:00,
2013-05-17 19:32:00,73.6,56.9,30.00,South,181,1.0,2.0,56,0.00,,,0.00,WeatherCatV1.11B39,2013-05-17 23:32:00,
2013-05-17 19:37:00,73.5,57.3,30.00,SSE,150,0.0,1.0,57,0.00,,,0.00,WeatherCatV1.11B39,2013-05-17 23:37:00,
2013-05-17 19:42:00,73.3,58.1,30.00,SE,124,0.0,0.0,59,0.00,,,0.00,WeatherCatV1.11B39,2013-05-17 23:42:00,
2013-05-17 19:47:00,72.9,57.7,30.00,SSE,153,0.0,0.0,59,0.00,,,0.00,WeatherCatV1.11B39,2013-05-17 23:47:00,
2013-05-17 19:52:00,72.8,57.6,30.01,SE,138,1.0,4.0,59,0.00,,,0.00,WeatherCatV1.11B39,2013-05-17 23:52:00,
2013-05-17 19:57:00,72.5,57.8,30.01,SE,138,0.0,1.0,60,0.00,,,0.00,WeatherCatV1.11B39,2013-05-17 23:57:00,
2013-05-17 20:02:00,72.2,57.1,30.00,SE,138,2.0,4.0,59,0.00,,,0.00,WeatherCatV1.11B39,2013-05-18 00:02:00,
2013-05-17 20:07:00,72.2,57.5,30.01,South,190,0.0,2.0,60,0.00,,,0.00,WeatherCatV1.11B39,2013-05-18 00:07:00,
2013-05-17 20:12:00,71.9,57.2,30.01,ESE,111,0.0,1.0,60,0.00,,,0.00,WeatherCatV1.11B39,2013-05-18 00:12:00,
2013-05-17 20:17:00,71.8,57.2,30.01,SSW,199,2.0,2.0,60,0.00,,,0.00,WeatherCatV1.11B39,2013-05-18 00:17:00,
2013-05-17 20:22:00,71.5,57.3,30.01,ESE,123,0.0,2.0,61,0.00,,,0.00,WeatherCatV1.11B39,2013-05-18 00:22:00,
2013-05-17 20:27:00,71.1,57.4,30.02,SSE,167,0.0,0.0,62,0.00,,,0.00,WeatherCatV1.11B39,2013-05-18 00:27:00,
2013-05-17 20:32:00,71.0,57.3,30.01,SSE,163,0.0,0.0,62,0.00,,,0.00,WeatherCatV1.11B39,2013-05-18 00:32:00,
2013-05-17 20:37:00,70.7,57.5,30.01,SE,131,0.0,1.0,63,0.00,,,0.00,WeatherCatV1.11B39,2013-05-18 00:37:00,
2013-05-17 20:42:00,70.5,57.7,30.02,ESE,113,0.0,3.0,64,0.00,,,0.00,WeatherCatV1.11B39,2013-05-18 00:42:00,
2013-05-17 20:47:00,70.3,58.0,30.02,SE,138,0.0,1.0,65,0.00,,,0.00,WeatherCatV1.11B39,2013-05-18 00:47:00,
2013-05-17 20:52:00,70.0,57.7,30.02,ESE,120,0.0,1.0,65,0.00,,,0.00,WeatherCatV1.11B39,2013-05-18 00:52:00,
2013-05-17 20:57:00,69.8,57.1,30.02,ESE,105,0.0,3.0,64,0.00,,,0.00,WeatherCatV1.11B39,2013-05-18 00:57:00,
2013-05-17 21:02:00,70.1,57.3,30.02,East,89,0.0,2.0,64,0.00,,,0.00,WeatherCatV1.11B39,2013-05-18 01:02:00,
2013-05-17 21:07:00,69.8,57.1,30.02,East,89,0.0,1.0,64,0.00,,,0.00,WeatherCatV1.11B39,2013-05-18 01:07:00,
2013-05-17 21:12:00,69.6,56.9,30.03,ESE,109,0.0,2.0,64,0.00,,,0.00,WeatherCatV1.11B39,2013-05-18 01:12:00,
2013-05-17 21:17:00,69.4,56.7,30.03,East,89,0.0,1.0,64,0.00,,,0.00,WeatherCatV1.11B39,2013-05-18 01:17:00,
2013-05-17 21:22:00,69.3,57.0,30.03,South,176,2.0,2.0,65,0.00,,,0.00,WeatherCatV1.11B39,2013-05-18 01:22:00,
2013-05-17 21:27:00,69.2,56.5,30.03,East,98,0.0,1.0,64,0.00,,,0.00,WeatherCatV1.11B39,2013-05-18 01:27:00,
2013-05-17 21:32:00,68.9,56.6,30.03,SSE,167,1.0,2.0,65,0.00,,,0.00,WeatherCatV1.11B39,2013-05-18 01:32:00,
2013-05-17 21:37:00,68.7,56.4,30.03,ESE,117,2.0,2.0,65,0.00,,,0.00,WeatherCatV1.11B39,2013-05-18 01:37:00,
2013-05-17 21:42:00,68.6,55.9,30.03,SSW,213,0.0,1.0,64,0.00,,,0.00,WeatherCatV1.11B39,2013-05-18 01:42:00,
2013-05-17 21:47:00,68.6,55.9,30.03,South,171,1.0,2.0,64,0.00,,,0.00,WeatherCatV1.11B39,2013-05-18 01:47:00,
2013-05-17 21:52:00,68.5,55.8,30.03,SSE,150,1.0,1.0,64,0.00,,,0.00,WeatherCatV1.11B39,2013-05-18 01:52:00,
2013-05-17 21:57:00,68.5,55.8,30.04,South,169,0.0,2.0,64,0.00,,,0.00,WeatherCatV1.11B39,2013-05-18 01:57:00,
2013-05-17 22:02:00,68.4,55.7,30.04,SSE,157,0.0,2.0,64,0.00,,,0.00,WeatherCatV1.11B39,2013-05-18 02:02:00,
2013-05-17 22:07:00,68.3,55.6,30.04,SE,141,0.0,0.0,64,0.00,,,0.00,WeatherCatV1.11B39,2013-05-18 02:07:00,
2013-05-17 22:12:00,68.1,55.0,30.04,SSE,153,1.0,1.0,63,0.00,,,0.00,WeatherCatV1.11B39,2013-05-18 02:12:00,
2013-05-17 22:17:00,68.1,55.0,30.04,South,185,0.0,2.0,63,0.00,,,0.00,WeatherCatV1.11B39,2013-05-18 02:17:00,
2013-05-17 22:22:00,68.1,55.0,30.05,SSW,197,0.0,3.0,63,0.00,,,0.00,WeatherCatV1.11B39,2013-05-18 02:22:00,
2013-05-17 22:27:00,68.0,54.9,30.05,SSE,162,1.0,2.0,63,0.00,,,0.00,WeatherCatV1.11B39,2013-05-18 02:27:00,
2013-05-17 22:32:00,67.9,54.8,30.05,SSE,160,0.0,2.0,63,0.00,,,0.00,WeatherCatV1.11B39,2013-05-18 02:32:00,
2013-05-17 22:37:00,68.0,54.5,30.05,SSW,211,1.0,3.0,62,0.00,,,0.00,WeatherCatV1.11B39,2013-05-18 02:37:00,
2013-05-17 22:42:00,68.0,54.5,30.05,SSW,195,0.0,1.0,62,0.00,,,0.00,WeatherCatV1.11B39,2013-05-18 02:42:00,
2013-05-17 22:47:00,68.0,54.9,30.05,SSW,196,0.0,1.0,63,0.00,,,0.00,WeatherCatV1.11B39,2013-05-18 02:47:00,
2013-05-17 22:52:00,67.7,55.1,30.05,SSE,156,1.0,2.0,64,0.00,,,0.00,WeatherCatV1.11B39,2013-05-18 02:52:00,
2013-05-17 22:57:00,67.8,55.2,30.06,SE,137,0.0,1.0,64,0.00,,,0.00,WeatherCatV1.11B39,2013-05-18 02:57:00,
2013-05-17 23:02:00,67.6,55.0,30.06,SE,137,0.0,0.0,64,0.00,,,0.00,WeatherCatV1.11B39,2013-05-18 03:02:00,
2013-05-17 23:07:00,67.4,54.8,30.06,SE,137,0.0,0.0,64,0.00,,,0.00,WeatherCatV1.11B39,2013-05-18 03:07:00,
2013-05-17 23:12:00,67.3,55.1,30.06,SE,137,0.0,0.0,65,0.00,,,0.00,WeatherCatV1.11B39,2013-05-18 03:12:00,
2013-05-17 23:16:00,67.3,54.7,30.06,SE,134,0.0,0.0,64,0.00,,,0.00,WeatherCatV1.11B39,2013-05-18 03:16:00,
2013-05-17 23:21:00,67.4,54.8,30.06,SE,134,0.0,0.0,64,0.00,,,0.00,WeatherCatV1.11B39,2013-05-18 03:21:00,
2013-05-17 23:26:00,67.5,54.9,30.06,SSE,154,0.0,0.0,64,0.00,,,0.00,WeatherCatV1.11B39,2013-05-18 03:26:00,
2013-05-17 23:31:00,67.5,54.5,30.06,ESE,122,0.0,0.0,63,0.00,,,0.00,WeatherCatV1.11B39,2013-05-18 03:31:00,
2013-05-17 23:36:00,67.5,55.3,30.06,ESE,122,0.0,0.0,65,0.00,,,0.00,WeatherCatV1.11B39,2013-05-18 03:36:00,
2013-05-17 23:41:00,67.4,55.2,30.06,ESE,122,0.0,0.0,65,0.00,,,0.00,WeatherCatV1.11B39,2013-05-18 03:41:00,
2013-05-17 23:46:00,67.4,55.2,30.06,ESE,111,0.0,0.0,65,0.00,,,0.00,WeatherCatV1.11B39,2013-05-18 03:46:00,
2013-05-17 23:51:00,67.3,55.1,30.06,ESE,111,0.0,0.0,65,0.00,,,0.00,WeatherCatV1.11B39,2013-05-18 03:51:00,
2013-05-17 23:56:00,67.2,55.4,30.05,ESE,111,0.0,0.0,66,0.00,,,0.00,WeatherCatV1.11B39,2013-05-18 03:56:00,